TimeEST,TemperatureF,Dew PointF,Humidity,Sea Level PressureIn,VisibilityMPH,Wind Direction,Wind SpeedMPH,Gust SpeedMPH,PrecipitationIn,Events,Conditions,WindDirDegrees,DateUTC
12:54 AM,39.9,24.1,53,30.25,10.0,NNE,10.4,-,N/A,,Clear,20,2012-12-06 05:54:00
1:54 AM,37.9,23.0,55,30.27,10.0,NNE,6.9,-,N/A,,Clear,20,2012-12-06 06:54:00
2:54 AM,37.0,19.9,50,30.29,10.0,North,6.9,-,N/A,,Clear,360,2012-12-06 07:54:00
3:54 AM,35.1,19.9,54,30.29,10.0,NNE,8.1,-,N/A,,Clear,30,2012-12-06 08:54:00
4:54 AM,34.0,19.9,56,30.30,10.0,North,5.8,-,N/A,,Clear,10,2012-12-06 09:54:00
5:54 AM,33.1,19.9,59,30.32,10.0,NNW,5.8,-,N/A,,Clear,340,2012-12-06 10:54:00
6:54 AM,32.0,19.9,61,30.33,10.0,North,6.9,-,N/A,,Partly Cloudy,360,2012-12-06 11:54:00
7:54 AM,34.0,19.9,56,30.34,10.0,North,8.1,-,N/A,,Clear,360,2012-12-06 12:54:00
8:54 AM,37.9,21.9,53,30.36,10.0,North,6.9,-,N/A,,Scattered Clouds,10,2012-12-06 13:54:00
9:54 AM,39.9,21.9,49,30.38,10.0,NNE,6.9,-,N/A,,Scattered Clouds,20,2012-12-06 14:54:00
10:54 AM,42.1,25.0,51,30.36,10.0,ENE,10.4,-,N/A,,Clear,60,2012-12-06 15:54:00
11:54 AM,42.1,26.1,53,30.34,10.0,ENE,13.8,-,N/A,,Scattered Clouds,70,2012-12-06 16:54:00
12:54 PM,43.0,27.0,53,30.32,10.0,East,11.5,-,N/A,,Scattered Clouds,80,2012-12-06 17:54:00
1:54 PM,43.0,27.0,53,30.31,10.0,ESE,9.2,-,N/A,,Mostly Cloudy,110,2012-12-06 18:54:00
2:54 PM,43.0,28.0,56,30.30,10.0,East,6.9,-,N/A,,Mostly Cloudy,100,2012-12-06 19:54:00
3:54 PM,42.1,27.0,55,30.30,10.0,East,4.6,-,N/A,,Clear,100,2012-12-06 20:54:00
4:54 PM,39.9,28.0,63,30.30,10.0,East,3.5,-,N/A,,Clear,100,2012-12-06 21:54:00
5:54 PM,37.0,27.0,67,30.30,10.0,Calm,Calm,-,N/A,,Clear,0,2012-12-06 22:54:00
6:54 PM,34.0,27.0,75,30.31,10.0,NW,3.5,-,N/A,,Clear,320,2012-12-06 23:54:00
7:54 PM,32.0,26.1,79,30.30,10.0,North,3.5,-,N/A,,Scattered Clouds,350,2012-12-07 00:54:00
8:54 PM,30.9,25.0,79,30.30,10.0,NW,4.6,-,N/A,,Clear,320,2012-12-07 01:54:00
9:54 PM,30.0,24.1,79,30.30,10.0,NNW,3.5,-,N/A,,Clear,340,2012-12-07 02:54:00
10:54 PM,30.0,24.1,79,30.28,10.0,North,3.5,-,N/A,,Clear,350,2012-12-07 03:54:00
11:54 PM,28.9,24.1,82,30.28,10.0,NNW,5.8,-,N/A,,Clear,330,2012-12-07 04:54:00